Time,TemperatureF,DewpointF,PressureIn,WindDirection,WindDirectionDegrees,WindSpeedMPH,WindSpeedGustMPH,Humidity,HourlyPrecipIn,Conditions,Clouds,dailyrainin,SoftwareType,DateUTC
2015-04-28 00:03:00,67.9,65.2,29.77,ENE,68,2.0,-999.0,91,0.00,,,0.00,Wunderground v.1.15,2015-04-28 05:03:00,
2015-04-28 00:09:00,67.8,65.1,29.78,ENE,63,1.0,-999.0,91,0.00,,,0.00,Wunderground v.1.15,2015-04-28 05:09:00,
2015-04-28 00:15:00,67.8,65.1,29.78,ENE,70,0.0,-999.0,91,0.00,,,0.00,Wunderground v.1.15,2015-04-28 05:15:00,
2015-04-28 00:20:00,67.7,65.0,29.78,NE,47,3.0,-999.0,91,0.00,,,0.00,Wunderground v.1.15,2015-04-28 05:20:00,
2015-04-28 00:26:00,67.6,64.9,29.78,NE,47,0.0,-999.0,91,0.00,,,0.00,Wunderground v.1.15,2015-04-28 05:26:00,
2015-04-28 00:32:00,67.7,65.0,29.78,NE,47,0.0,-999.0,91,0.00,,,0.00,Wunderground v.1.15,2015-04-28 05:32:00,
2015-04-28 00:38:00,67.7,65.0,29.78,ENE,76,0.0,-999.0,91,0.00,,,0.00,Wunderground v.1.15,2015-04-28 05:38:00,
2015-04-28 00:43:00,67.6,64.9,29.78,ENE,75,1.0,-999.0,91,0.00,,,0.00,Wunderground v.1.15,2015-04-28 05:43:00,
2015-04-28 00:48:00,67.6,64.9,29.78,ENE,75,0.0,-999.0,91,0.00,,,0.00,Wunderground v.1.15,2015-04-28 05:48:00,
2015-04-28 00:54:00,67.5,64.8,29.78,NE,45,1.0,-999.0,91,0.00,,,0.00,Wunderground v.1.15,2015-04-28 05:54:00,
2015-04-28 01:00:00,67.5,64.8,29.78,NE,46,0.0,-999.0,91,0.00,,,0.00,Wunderground v.1.15,2015-04-28 06:00:00,
2015-04-28 01:06:00,67.4,64.7,29.78,NE,46,1.0,-999.0,91,0.00,,,0.00,Wunderground v.1.15,2015-04-28 06:06:00,
2015-04-28 01:11:00,67.3,64.6,29.78,NE,46,0.0,-999.0,91,0.00,,,0.00,Wunderground v.1.15,2015-04-28 06:11:00,
2015-04-28 01:17:00,67.3,64.6,29.77,NE,39,0.0,-999.0,91,0.00,,,0.00,Wunderground v.1.15,2015-04-28 06:17:00,
2015-04-28 01:23:00,67.3,64.6,29.77,NE,49,3.0,-999.0,91,0.00,,,0.00,Wunderground v.1.15,2015-04-28 06:23:00,
2015-04-28 01:29:00,67.3,64.6,29.77,ENE,71,3.0,-999.0,91,0.00,,,0.00,Wunderground v.1.15,2015-04-28 06:29:00,
2015-04-28 01:35:00,67.3,64.6,29.77,ENE,70,0.0,-999.0,91,0.00,,,0.00,Wunderground v.1.15,2015-04-28 06:35:00,
2015-04-28 01:41:00,67.3,64.6,29.76,NNE,33,1.0,-999.0,91,0.00,,,0.00,Wunderground v.1.15,2015-04-28 06:41:00,
2015-04-28 01:47:00,67.3,64.6,29.77,NE,38,1.0,-999.0,91,0.00,,,0.00,Wunderground v.1.15,2015-04-28 06:47:00,
2015-04-28 01:52:00,67.4,64.4,29.77,NE,38,0.0,-999.0,90,0.00,,,0.00,Wunderground v.1.15,2015-04-28 06:52:00,
2015-04-28 01:58:00,67.5,64.5,29.77,NE,37,0.0,-999.0,90,0.00,,,0.00,Wunderground v.1.15,2015-04-28 06:58:00,
2015-04-28 02:03:00,67.7,64.7,29.77,ENE,69,1.0,-999.0,90,0.00,,,0.00,Wunderground v.1.15,2015-04-28 07:03:00,
2015-04-28 02:08:00,67.7,64.3,29.77,ENE,73,2.0,-999.0,89,0.00,,,0.00,Wunderground v.1.15,2015-04-28 07:08:00,
2015-04-28 02:13:00,67.6,64.2,29.76,ENE,70,5.0,-999.0,89,0.00,,,0.00,Wunderground v.1.15,2015-04-28 07:13:00,
2015-04-28 02:18:00,67.5,64.1,29.77,ENE,66,3.0,-999.0,89,0.00,,,0.00,Wunderground v.1.15,2015-04-28 07:18:00,
2015-04-28 02:23:00,67.3,64.3,29.77,ENE,64,4.0,-999.0,90,0.00,,,0.00,Wunderground v.1.15,2015-04-28 07:23:00,
2015-04-28 02:28:00,67.3,63.9,29.77,NNE,24,2.0,-999.0,89,0.00,,,0.00,Wunderground v.1.15,2015-04-28 07:28:00,
2015-04-28 02:33:00,67.2,63.8,29.77,NNE,27,0.0,-999.0,89,0.00,,,0.00,Wunderground v.1.15,2015-04-28 07:33:00,
2015-04-28 02:38:00,67.2,63.8,29.78,NNE,22,4.0,-999.0,89,0.00,,,0.00,Wunderground v.1.15,2015-04-28 07:38:00,
2015-04-28 02:43:00,67.1,63.7,29.77,NNE,12,6.0,-999.0,89,0.00,,,0.00,Wunderground v.1.15,2015-04-28 07:43:00,
2015-04-28 02:48:00,66.9,63.9,29.77,NNE,33,3.0,-999.0,90,0.00,,,0.00,Wunderground v.1.15,2015-04-28 07:48:00,
2015-04-28 02:53:00,66.8,63.8,29.78,NNE,19,0.0,-999.0,90,0.00,,,0.00,Wunderground v.1.15,2015-04-28 07:53:00,
2015-04-28 02:58:00,66.7,63.7,29.77,NNE,24,0.0,-999.0,90,0.00,,,0.00,Wunderground v.1.15,2015-04-28 07:58:00,
2015-04-28 03:03:00,66.6,63.6,29.77,NNE,26,1.0,-999.0,90,0.00,,,0.00,Wunderground v.1.15,2015-04-28 08:03:00,
2015-04-28 03:08:00,66.5,63.5,29.77,NNE,15,0.0,-999.0,90,0.00,,,0.00,Wunderground v.1.15,2015-04-28 08:08:00,
2015-04-28 03:13:00,66.4,63.4,29.77,NE,42,1.0,-999.0,90,0.00,,,0.00,Wunderground v.1.15,2015-04-28 08:13:00,
2015-04-28 03:18:00,66.3,63.3,29.77,NE,34,4.0,-999.0,90,0.00,,,0.00,Wunderground v.1.15,2015-04-28 08:18:00,
2015-04-28 03:23:00,66.2,63.2,29.76,NE,42,4.0,-999.0,90,0.00,,,0.00,Wunderground v.1.15,2015-04-28 08:23:00,
2015-04-28 03:28:00,66.1,63.1,29.76,ENE,59,1.0,-999.0,90,0.00,,,0.00,Wunderground v.1.15,2015-04-28 08:28:00,
2015-04-28 03:33:00,66.0,63.0,29.76,NNE,20,2.0,-999.0,90,0.00,,,0.00,Wunderground v.1.15,2015-04-28 08:33:00,
2015-04-28 03:38:00,65.9,62.9,29.76,NE,46,0.0,-999.0,90,0.00,,,0.00,Wunderground v.1.15,2015-04-28 08:38:00,
2015-04-28 03:43:00,65.9,62.9,29.76,NNE,31,4.0,-999.0,90,0.00,,,0.00,Wunderground v.1.15,2015-04-28 08:43:00,
2015-04-28 03:48:00,65.7,62.7,29.76,NE,35,2.0,-999.0,90,0.00,,,0.00,Wunderground v.1.15,2015-04-28 08:48:00,
2015-04-28 03:53:00,65.7,62.7,29.77,ENE,57,3.0,-999.0,90,0.00,,,0.00,Wunderground v.1.15,2015-04-28 08:53:00,
2015-04-28 03:58:00,65.6,62.6,29.77,NE,44,1.0,-999.0,90,0.00,,,0.00,Wunderground v.1.15,2015-04-28 08:58:00,
2015-04-28 04:03:00,65.6,62.6,29.78,ENE,69,4.0,-999.0,90,0.00,,,0.00,Wunderground v.1.15,2015-04-28 09:03:00,
2015-04-28 04:08:00,65.6,62.6,29.78,NE,38,0.0,-999.0,90,0.00,,,0.00,Wunderground v.1.15,2015-04-28 09:08:00,
2015-04-28 04:13:00,65.5,62.5,29.77,ENE,66,5.0,-999.0,90,0.00,,,0.00,Wunderground v.1.15,2015-04-28 09:13:00,
2015-04-28 04:18:00,65.5,62.5,29.78,East,80,1.0,-999.0,90,0.00,,,0.00,Wunderground v.1.15,2015-04-28 09:18:00,
2015-04-28 04:23:00,65.3,62.3,29.78,ENE,59,2.0,-999.0,90,0.00,,,0.00,Wunderground v.1.15,2015-04-28 09:23:00,
2015-04-28 04:28:00,65.3,62.3,29.78,NE,48,3.0,-999.0,90,0.00,,,0.00,Wunderground v.1.15,2015-04-28 09:28:00,
2015-04-28 04:33:00,65.3,62.3,29.78,NNE,32,4.0,-999.0,90,0.00,,,0.00,Wunderground v.1.15,2015-04-28 09:33:00,
2015-04-28 04:38:00,65.2,62.2,29.78,NNE,32,1.0,-999.0,90,0.00,,,0.00,Wunderground v.1.15,2015-04-28 09:38:00,
2015-04-28 04:43:00,65.2,62.2,29.78,NE,38,0.0,-999.0,90,0.00,,,0.00,Wunderground v.1.15,2015-04-28 09:43:00,
2015-04-28 04:48:00,65.1,62.1,29.77,NE,47,1.0,-999.0,90,0.00,,,0.00,Wunderground v.1.15,2015-04-28 09:48:00,
2015-04-28 04:53:00,65.1,62.1,29.78,North,10,2.0,-999.0,90,0.00,,,0.00,Wunderground v.1.15,2015-04-28 09:53:00,
2015-04-28 04:58:00,65.1,62.1,29.78,NE,35,1.0,-999.0,90,0.00,,,0.00,Wunderground v.1.15,2015-04-28 09:58:00,
2015-04-28 05:03:00,65.1,62.1,29.77,NE,35,0.0,-999.0,90,0.00,,,0.00,Wunderground v.1.15,2015-04-28 10:03:00,
2015-04-28 05:08:00,65.0,62.0,29.78,NE,50,1.0,-999.0,90,0.00,,,0.00,Wunderground v.1.15,2015-04-28 10:08:00,
2015-04-28 05:13:00,64.9,61.9,29.78,NE,52,0.0,-999.0,90,0.00,,,0.00,Wunderground v.1.15,2015-04-28 10:13:00,
2015-04-28 05:18:00,64.9,61.9,29.78,NE,52,0.0,-999.0,90,0.00,,,0.00,Wunderground v.1.15,2015-04-28 10:18:00,
2015-04-28 05:23:00,64.8,61.8,29.78,NE,52,0.0,-999.0,90,0.00,,,0.00,Wunderground v.1.15,2015-04-28 10:23:00,
2015-04-28 05:28:00,64.6,61.6,29.78,NE,52,0.0,-999.0,90,0.00,,,0.00,Wunderground v.1.15,2015-04-28 10:28:00,
2015-04-28 05:33:00,64.4,61.4,29.79,NE,52,0.0,-999.0,90,0.00,,,0.00,Wunderground v.1.15,2015-04-28 10:33:00,
2015-04-28 05:38:00,64.1,61.1,29.79,NE,52,0.0,-999.0,90,0.00,,,0.00,Wunderground v.1.15,2015-04-28 10:38:00,
2015-04-28 05:43:00,63.9,60.9,29.79,NE,52,0.0,-999.0,90,0.00,,,0.00,Wunderground v.1.15,2015-04-28 10:43:00,
2015-04-28 05:48:00,63.7,60.7,29.79,NE,52,0.0,-999.0,90,0.00,,,0.00,Wunderground v.1.15,2015-04-28 10:48:00,
2015-04-28 05:53:00,63.5,60.8,29.80,NE,52,0.0,-999.0,91,0.00,,,0.00,Wunderground v.1.15,2015-04-28 10:53:00,
2015-04-28 05:58:00,63.4,60.7,29.79,NE,52,0.0,-999.0,91,0.00,,,0.00,Wunderground v.1.15,2015-04-28 10:58:00,
2015-04-28 06:03:00,63.2,60.5,29.80,NE,52,0.0,-999.0,91,0.00,,,0.00,Wunderground v.1.15,2015-04-28 11:03:00,
2015-04-28 06:08:00,63.0,60.3,29.80,NE,52,0.0,-999.0,91,0.00,,,0.00,Wunderground v.1.15,2015-04-28 11:08:00,
2015-04-28 06:14:00,62.9,60.2,29.80,NE,52,0.0,-999.0,91,0.00,,,0.00,Wunderground v.1.15,2015-04-28 11:14:00,
2015-04-28 06:19:00,62.8,60.1,29.81,NE,52,0.0,-999.0,91,0.00,,,0.00,Wunderground v.1.15,2015-04-28 11:19:00,
2015-04-28 06:24:00,62.7,60.0,29.81,NE,52,0.0,-999.0,91,0.00,,,0.00,Wunderground v.1.15,2015-04-28 11:24:00,
2015-04-28 06:29:00,62.4,59.7,29.81,NE,52,0.0,-999.0,91,0.00,,,0.00,Wunderground v.1.15,2015-04-28 11:29:00,
2015-04-28 06:34:00,62.1,59.7,29.82,NE,52,0.0,-999.0,92,0.00,,,0.00,Wunderground v.1.15,2015-04-28 11:34:00,
2015-04-28 06:39:00,62.0,59.6,29.82,NE,52,0.0,-999.0,92,0.00,,,0.00,Wunderground v.1.15,2015-04-28 11:39:00,
2015-04-28 06:44:00,61.8,59.5,29.83,NE,52,0.0,-999.0,92,0.00,,,0.00,Wunderground v.1.15,2015-04-28 11:44:00,
2015-04-28 06:49:00,61.8,59.8,29.83,NE,52,0.0,-999.0,93,0.00,,,0.00,Wunderground v.1.15,2015-04-28 11:49:00,
2015-04-28 06:54:00,61.9,59.9,29.83,NE,52,0.0,-999.0,93,0.00,,,0.00,Wunderground v.1.15,2015-04-28 11:54:00,
2015-04-28 06:59:00,62.0,60.0,29.83,NE,52,0.0,-999.0,93,0.00,,,0.00,Wunderground v.1.15,2015-04-28 11:59:00,
2015-04-28 07:04:00,62.1,60.1,29.84,NE,52,0.0,-999.0,93,0.00,,,0.00,Wunderground v.1.15,2015-04-28 12:04:00,
2015-04-28 07:09:00,62.1,60.1,29.84,NE,52,0.0,-999.0,93,0.00,,,0.00,Wunderground v.1.15,2015-04-28 12:09:00,
2015-04-28 07:14:00,62.2,60.2,29.84,NE,52,0.0,-999.0,93,0.00,,,0.00,Wunderground v.1.15,2015-04-28 12:14:00,
2015-04-28 07:19:00,62.3,60.2,29.84,NE,41,0.0,-999.0,93,0.00,,,0.00,Wunderground v.1.15,2015-04-28 12:19:00,
2015-04-28 07:24:00,62.4,60.0,29.85,NW,325,3.0,-999.0,92,0.00,,,0.00,Wunderground v.1.15,2015-04-28 12:24:00,
2015-04-28 07:29:00,62.7,60.0,29.85,WNW,302,2.0,-999.0,91,0.00,,,0.00,Wunderground v.1.15,2015-04-28 12:29:00,
2015-04-28 07:34:00,62.9,60.2,29.85,WNW,302,2.0,-999.0,91,0.00,,,0.00,Wunderground v.1.15,2015-04-28 12:34:00,
2015-04-28 07:39:00,63.2,60.5,29.85,WNW,303,0.0,-999.0,91,0.00,,,0.00,Wunderground v.1.15,2015-04-28 12:39:00,
2015-04-28 07:44:00,63.5,60.5,29.86,WNW,303,0.0,-999.0,90,0.00,,,0.00,Wunderground v.1.15,2015-04-28 12:44:00,
2015-04-28 07:49:00,63.8,60.8,29.86,WNW,303,0.0,-999.0,90,0.00,,,0.00,Wunderground v.1.15,2015-04-28 12:49:00,
2015-04-28 07:54:00,64.1,61.1,29.86,WNW,300,3.0,-999.0,90,0.00,,,0.00,Wunderground v.1.15,2015-04-28 12:54:00,
2015-04-28 07:59:00,64.4,61.4,29.86,WNW,292,0.0,-999.0,90,0.00,,,0.00,Wunderground v.1.15,2015-04-28 12:59:00,
2015-04-28 08:04:00,64.5,61.5,29.86,WNW,292,0.0,-999.0,90,0.00,,,0.00,Wunderground v.1.15,2015-04-28 13:04:00,
2015-04-28 08:09:00,64.5,61.5,29.86,WNW,292,0.0,-999.0,90,0.00,,,0.00,Wunderground v.1.15,2015-04-28 13:09:00,
2015-04-28 08:14:00,64.7,61.7,29.87,West,279,6.0,-999.0,90,0.00,,,0.00,Wunderground v.1.15,2015-04-28 13:14:00,
2015-04-28 08:19:00,64.9,61.9,29.87,NNW,331,4.0,-999.0,90,0.00,,,0.00,Wunderground v.1.15,2015-04-28 13:19:00,
2015-04-28 08:24:00,64.9,61.6,29.87,NW,324,1.0,-999.0,89,0.00,,,0.00,Wunderground v.1.15,2015-04-28 13:24:00,
2015-04-28 08:29:00,65.0,61.7,29.87,NW,326,0.0,-999.0,89,0.00,,,0.00,Wunderground v.1.15,2015-04-28 13:29:00,
2015-04-28 08:34:00,64.9,61.6,29.88,NNW,336,1.0,-999.0,89,0.00,,,0.00,Wunderground v.1.15,2015-04-28 13:34:00,
2015-04-28 08:39:00,64.9,61.6,29.88,North,350,3.0,-999.0,89,0.00,,,0.00,Wunderground v.1.15,2015-04-28 13:39:00,
2015-04-28 08:44:00,64.8,61.5,29.88,North,5,2.0,-999.0,89,0.00,,,0.00,Wunderground v.1.15,2015-04-28 13:44:00,
2015-04-28 08:49:00,64.7,61.4,29.88,NNE,30,7.0,-999.0,89,0.00,,,0.00,Wunderground v.1.15,2015-04-28 13:49:00,
2015-04-28 08:54:00,64.7,61.4,29.88,North,5,5.0,-999.0,89,0.00,,,0.00,Wunderground v.1.15,2015-04-28 13:54:00,
2015-04-28 08:59:00,64.8,61.5,29.88,NNW,329,0.0,-999.0,89,0.00,,,0.00,Wunderground v.1.15,2015-04-28 13:59:00,
2015-04-28 09:04:00,64.9,61.9,29.87,NNE,16,5.0,-999.0,90,0.00,,,0.00,Wunderground v.1.15,2015-04-28 14:04:00,
2015-04-28 09:09:00,65.6,62.3,29.88,North,360,2.0,-999.0,89,0.00,,,0.00,Wunderground v.1.15,2015-04-28 14:09:00,
2015-04-28 09:14:00,66.2,62.5,29.87,North,355,2.0,-999.0,88,0.00,,,0.00,Wunderground v.1.15,2015-04-28 14:14:00,
2015-04-28 09:19:00,66.8,62.8,29.87,NNW,346,1.0,-999.0,87,0.00,,,0.00,Wunderground v.1.15,2015-04-28 14:19:00,
2015-04-28 09:24:00,67.7,63.7,29.87,NNW,346,0.0,-999.0,87,0.00,,,0.00,Wunderground v.1.15,2015-04-28 14:24:00,